Content
SEND FEEDBACK

Daily
Averages
Monthly
Summary
Philippines

QUEZON CITY, PHILIPPINES


Home > Asia > Philippines
Elevation: 46 meters     Latitude: 14 39N     Longitude: 121 03E

WEATHER
 
SELECT A DAY
Number of Records: 172,358;   Date Range: 7/1/96 - 7/20/14
 
SHARE

PRINT THIS DATA

[ ← Previous Day ]
WEATHER ALMANAC - 25 SEPTEMBER, 2013
[ Next Day → ]
[ °F ]   °C
Weather ElementAverageHighLow
Temperature26.4 °C29 °C (12:00 pm)25 °C (1:00 am)
Dewpoint25.2 °C26.1 °C (11:00 pm)24 °C (5:00 pm)
Humidity92.6 %100 % (1:00 am)79 % (12:00 pm)
Barometer1007.5 hPa1009.1 hPa (9:00 am)1001.4 hPa (2:00 am)
Wind Speed6.4 km/h18.5 km/h (3:00 pm)
Weather ElementAverage
Visibility9.3 km
Wind DirectionSE (134.2 °)

Weather ElementTotal
Precipitation---
Cooling Degree Days8.7 (Base 18.3)
Growing Degree Days17 (Base 10)
Averaged from 31 records on 25 September, 2013
WEATHER CONDITIONS BREAKOUT
WIND DIRECTION BREAKOUT
WEATHER BY HOUR - 25 SEPTEMBER, 2013
[ °F ]   °C
Local TimeTemperatureDewpointHumidityBarometerVisibilityWind DirectionWind SpeedGust SpeedPrecipitationEventsConditions
1:00 AM25 °C25 °C100 %1008.1 hPa10 kmVariable1.9 km/hOvercast
2:00 AM25 °C25.6 °C100 %1001.4 hPa8 kmSW (220°)7.2 km/hRainHeavy Rain Showers
2:00 AM25 °C25 °C100 %1008.1 hPa10 kmCalmOvercast
3:00 AM25 °C25 °C100 %1007.1 hPa10 kmSW (220°)5.6 km/hOvercast
4:00 AM25 °C25 °C100 %1006.1 hPa10 kmENE (70°)1.9 km/hOvercast
5:00 AM25 °C25 °C100 %1007.5 hPa9.7 kmEast (80°)7.2 km/hHaze
5:00 AM25 °C25 °C100 %1007.1 hPa10 kmEast (80°)7.4 km/hOvercast
6:00 AM25 °C25 °C100 %1007.1 hPa10 kmCalmOvercast
7:00 AM26 °C25 °C94 %1008.1 hPa10 kmSSE (160°)3.7 km/hOvercast
8:00 AM27 °C25 °C89 %1008.1 hPa10 kmESE (110°)7.4 km/hMostly Cloudy
8:38 AM27 °C25 °C89 %1008.1 hPa9 kmSE (130°)7.4 km/hRainLight Rain Showers
9:00 AM27 °C25 °C89 %1009.1 hPa9 kmSSE (150°)7.4 km/hRainLight Rain
10:00 AM28 °C25 °C84 %1008.1 hPa10 kmSE (140°)11.1 km/hOvercast
11:00 AM27.2 °C25.6 °C86 %1008.5 hPa9.7 kmWest (260°)7.2 km/hHaze
11:00 AM27 °C25 °C89 %1008.1 hPa10 kmVariable9.3 km/hScattered Clouds
12:00 PM29 °C25 °C79 %1007.1 hPa10 kmVariable5.6 km/hScattered Clouds
1:00 PM28 °C26 °C89 %1006.1 hPa10 kmWNW (290°)11.1 km/hScattered Clouds
2:00 PM27.8 °C25 °C80 %1006.8 hPa9.7 kmWNW (290°)10.8 km/hHaze
2:00 PM28 °C25 °C84 %1006.1 hPa10 kmWNW (290°)11.1 km/hScattered Clouds
3:00 PM29 °C26 °C84 %1006.1 hPa10 kmWest (260°)18.5 km/hMostly Cloudy
4:00 PM27 °C25 °C89 %1006.1 hPa9 kmWSW (250°)13 km/hRainLight Rain Showers
5:00 PM26.7 °C24.4 °C84 %1007.1 hPa8 kmWSW (240°)7.2 km/hRainLight Rain
5:00 PM27 °C24 °C84 %1007.1 hPa8 kmWSW (240°)7.4 km/hRainLight Rain
6:00 PM26 °C25 °C94 %1007.1 hPa8 kmCalmMostly Cloudy
7:00 PM26 °C25 °C94 %1007.1 hPa8 kmEast (90°)3.7 km/hMostly Cloudy
8:00 PM26.1 °C25.6 °C97 %1008.5 hPa8 kmEast (100°)3.5 km/hHaze
8:00 PM26 °C26 °C100 %1008.1 hPa8 kmEast (100°)3.7 km/hMostly Cloudy
9:00 PM26 °C25 °C94 %1009.1 hPa9 kmCalmMostly Cloudy
10:00 PM26 °C26 °C100 %1009.1 hPa8 kmSSE (150°)3.7 km/hRainLight Rain Showers
11:00 PM26.1 °C26.1 °C99 %1008.5 hPa9.7 kmESE (120°)7.2 km/hRainLight Rain
11:00 PM26 °C26 °C100 %1008.1 hPa9 kmESE (120°)7.4 km/hRainLight Rain
Hourly data recorded from RPLL, located 0 kilometers away from Quezon City, Philippines







STORIES FROM OUR PARTNERS